Time,TemperatureF,DewpointF,PressureIn,WindDirection,WindDirectionDegrees,WindSpeedMPH,WindSpeedGustMPH,Humidity,HourlyPrecipIn,Conditions,Clouds,dailyrainin,SoftwareType,DateUTC
2013-05-15 00:03:00,48.0,43.0,30.14,WSW,240,0.0,6.0,84,0.00,,,0.00,,2013-05-15 04:03:00,
2013-05-15 00:12:00,48.0,43.0,30.14,WSW,240,0.0,6.0,84,0.00,,,0.00,,2013-05-15 04:12:00,
2013-05-15 00:24:00,48.0,43.0,30.14,WSW,240,0.0,6.0,84,0.00,,,0.00,,2013-05-15 04:24:00,
2013-05-15 00:33:00,48.0,43.0,30.14,WSW,240,0.0,6.0,84,0.00,,,0.00,,2013-05-15 04:33:00,
2013-05-15 00:52:00,47.0,42.0,30.15,WSW,237,0.0,0.0,83,0.00,,,0.00,,2013-05-15 04:52:00,
2013-05-15 01:02:00,46.0,42.0,30.14,WSW,237,0.0,0.0,86,0.00,,,0.00,,2013-05-15 05:02:00,
2013-05-15 01:12:00,46.0,42.0,30.14,WSW,237,0.0,0.0,86,0.00,,,0.00,,2013-05-15 05:12:00,
2013-05-15 01:22:00,46.0,42.0,30.14,WSW,237,0.0,0.0,86,0.00,,,0.00,,2013-05-15 05:22:00,
2013-05-15 01:32:00,46.0,42.0,30.14,WSW,237,0.0,0.0,87,0.00,,,0.00,,2013-05-15 05:32:00,
2013-05-15 01:42:00,46.0,42.0,30.14,WSW,237,0.0,0.0,87,0.00,,,0.00,,2013-05-15 05:42:00,
2013-05-15 01:52:00,46.0,43.0,30.14,WSW,237,0.0,0.0,89,0.00,,,0.00,,2013-05-15 05:52:00,
2013-05-15 02:02:00,45.0,42.0,30.14,WSW,237,0.0,0.0,89,0.00,,,0.00,,2013-05-15 06:02:00,
2013-05-15 02:11:00,45.0,42.0,30.14,WSW,237,0.0,0.0,89,0.00,,,0.00,,2013-05-15 06:11:00,
2013-05-15 02:21:00,45.0,42.0,30.13,WSW,237,0.0,0.0,90,0.00,,,0.00,,2013-05-15 06:21:00,
2013-05-15 02:32:00,45.0,42.0,30.13,WSW,237,0.0,0.0,90,0.00,,,0.00,,2013-05-15 06:32:00,
2013-05-15 02:42:00,44.0,41.0,30.13,WSW,237,0.0,0.0,90,0.00,,,0.00,,2013-05-15 06:42:00,
2013-05-15 02:52:00,44.0,41.0,30.13,WSW,237,0.0,0.0,90,0.00,,,0.00,,2013-05-15 06:52:00,
2013-05-15 03:01:00,44.0,41.0,30.13,WSW,237,0.0,0.0,90,0.00,,,0.00,,2013-05-15 07:01:00,
2013-05-15 03:11:00,44.0,41.0,30.13,WSW,237,0.0,0.0,90,0.00,,,0.00,,2013-05-15 07:11:00,
2013-05-15 03:22:00,43.0,41.0,30.13,WSW,237,0.0,0.0,91,0.00,,,0.00,,2013-05-15 07:22:00,
2013-05-15 03:32:00,42.0,40.0,30.13,WSW,237,0.0,0.0,92,0.00,,,0.00,,2013-05-15 07:32:00,
2013-05-15 03:42:00,42.0,40.0,30.13,WSW,237,0.0,0.0,92,0.00,,,0.00,,2013-05-15 07:42:00,
2013-05-15 03:52:00,40.0,38.0,30.12,WSW,237,0.0,0.0,92,0.00,,,0.00,,2013-05-15 07:52:00,
2013-05-15 04:02:00,39.0,37.0,30.12,WSW,237,0.0,0.0,92,0.00,,,0.00,,2013-05-15 08:02:00,
2013-05-15 04:12:00,39.0,37.0,30.12,WSW,237,0.0,0.0,92,0.00,,,0.00,,2013-05-15 08:12:00,
2013-05-15 04:21:00,38.0,36.0,30.12,WSW,237,0.0,0.0,93,0.00,,,0.00,,2013-05-15 08:21:00,
2013-05-15 04:32:00,38.0,36.0,30.12,WSW,237,0.0,0.0,93,0.00,,,0.00,,2013-05-15 08:32:00,
2013-05-15 04:42:00,36.0,34.0,30.12,WSW,237,0.0,0.0,93,0.00,,,0.00,,2013-05-15 08:42:00,
2013-05-15 04:53:00,36.0,34.0,30.12,WSW,237,0.0,0.0,93,0.00,,,0.00,,2013-05-15 08:53:00,
2013-05-15 05:01:00,36.0,34.0,30.12,WSW,237,0.0,0.0,93,0.00,,,0.00,,2013-05-15 09:01:00,
2013-05-15 05:12:00,36.0,34.0,30.12,WSW,237,0.0,0.0,93,0.00,,,0.00,,2013-05-15 09:12:00,
2013-05-15 05:21:00,36.0,34.0,30.12,WSW,237,0.0,0.0,93,0.00,,,0.00,,2013-05-15 09:21:00,
2013-05-15 05:33:00,36.0,36.0,30.11,WSW,237,0.0,0.0,100,0.00,,,0.00,,2013-05-15 09:33:00,
2013-05-15 05:42:00,36.0,36.0,30.11,WSW,237,0.0,0.0,100,0.00,,,0.00,,2013-05-15 09:42:00,
2013-05-15 05:53:00,35.0,34.0,30.12,WSW,237,0.0,0.0,95,0.00,,,0.00,,2013-05-15 09:53:00,
2013-05-15 06:02:00,35.0,34.0,30.11,WSW,237,0.0,0.0,95,0.00,,,0.00,,2013-05-15 10:02:00,
2013-05-15 06:13:00,35.0,34.0,30.11,WSW,237,0.0,0.0,95,0.00,,,0.00,,2013-05-15 10:13:00,
2013-05-15 06:22:00,35.0,34.0,30.12,WSW,237,0.0,0.0,95,0.00,,,0.00,,2013-05-15 10:22:00,
2013-05-15 06:32:00,35.0,34.0,30.12,WSW,237,0.0,0.0,95,0.00,,,0.00,,2013-05-15 10:32:00,
2013-05-15 06:36:00,38.0,37.0,30.13,WSW,237,0.0,0.0,96,0.00,,,0.00,,2013-05-15 10:36:00,
2013-05-15 06:42:00,36.0,35.0,30.12,WSW,237,0.0,0.0,96,0.00,,,0.00,,2013-05-15 10:42:00,
2013-05-15 06:52:00,36.0,35.0,30.12,WSW,237,0.0,0.0,96,0.00,,,0.00,,2013-05-15 10:52:00,
2013-05-15 07:13:00,38.0,37.0,30.13,WSW,237,0.0,0.0,96,0.00,,,0.00,,2013-05-15 11:13:00,
2013-05-15 07:19:00,38.0,37.0,30.13,WSW,237,0.0,0.0,96,0.00,,,0.00,,2013-05-15 11:19:00,
2013-05-15 07:27:00,38.0,37.0,30.13,WSW,237,0.0,0.0,96,0.00,,,0.00,,2013-05-15 11:27:00,
2013-05-15 07:50:00,44.0,42.0,30.12,WSW,237,0.0,0.0,93,0.00,,,0.00,,2013-05-15 11:50:00,
2013-05-15 08:02:00,44.0,42.0,30.12,WSW,237,0.0,0.0,93,0.00,,,0.00,,2013-05-15 12:02:00,
2013-05-15 08:11:00,47.0,45.0,30.12,WSW,237,0.0,0.0,91,0.00,,,0.00,,2013-05-15 12:11:00,
2013-05-15 08:16:00,50.0,47.0,30.12,SSW,202,0.0,0.0,89,0.00,,,0.00,,2013-05-15 12:16:00,
2013-05-15 08:29:00,50.0,47.0,30.12,SSW,202,0.0,0.0,89,0.00,,,0.00,,2013-05-15 12:29:00,
2013-05-15 08:37:00,51.0,48.0,30.12,WSW,242,1.0,5.0,88,0.00,,,0.00,,2013-05-15 12:37:00,
2013-05-15 08:47:00,51.0,48.0,30.12,WSW,242,1.0,5.0,88,0.00,,,0.00,,2013-05-15 12:47:00,
2013-05-15 08:54:00,51.0,48.0,30.12,WSW,242,1.0,5.0,88,0.00,,,0.00,,2013-05-15 12:54:00,
2013-05-15 09:10:00,53.0,47.0,30.11,SW,223,5.0,5.0,79,0.00,,,0.00,,2013-05-15 13:10:00,
2013-05-15 09:19:00,53.0,47.0,30.11,SW,223,5.0,5.0,79,0.00,,,0.00,,2013-05-15 13:19:00,
2013-05-15 09:27:00,54.0,47.0,30.10,WSW,247,3.0,5.0,77,0.00,,,0.00,,2013-05-15 13:27:00,
2013-05-15 09:36:00,54.0,48.0,30.10,SSW,211,0.0,1.0,80,0.00,,,0.00,,2013-05-15 13:36:00,
2013-05-15 09:46:00,54.0,48.0,30.10,SSW,211,0.0,1.0,80,0.00,,,0.00,,2013-05-15 13:46:00,
2013-05-15 09:56:00,54.0,48.0,30.10,SSW,211,0.0,1.0,80,0.00,,,0.00,,2013-05-15 13:56:00,
2013-05-15 10:07:00,53.0,48.0,30.10,SSE,147,5.0,5.0,83,0.00,,,0.00,,2013-05-15 14:07:00,
2013-05-15 10:14:00,54.0,48.0,30.10,SW,222,1.0,6.0,81,0.00,,,0.00,,2013-05-15 14:14:00,
2013-05-15 10:28:00,54.0,48.0,30.10,SW,222,1.0,6.0,81,0.00,,,0.00,,2013-05-15 14:28:00,
2013-05-15 10:38:00,54.0,48.0,30.10,SW,222,1.0,6.0,81,0.00,,,0.00,,2013-05-15 14:38:00,
2013-05-15 10:51:00,54.0,48.0,30.10,SW,222,1.0,6.0,81,0.00,,,0.00,,2013-05-15 14:51:00,
2013-05-15 10:59:00,55.0,46.0,30.09,WSW,250,4.0,6.0,72,0.00,,,0.00,,2013-05-15 14:59:00,
2013-05-15 11:08:00,55.0,46.0,30.09,WSW,250,4.0,6.0,72,0.00,,,0.00,,2013-05-15 15:08:00,
2013-05-15 11:16:00,56.0,47.0,30.09,South,186,0.0,6.0,73,0.00,,,0.00,,2013-05-15 15:16:00,
2013-05-15 11:28:00,56.0,47.0,30.09,South,186,0.0,6.0,73,0.00,,,0.00,,2013-05-15 15:28:00,
2013-05-15 11:37:00,57.0,46.0,30.08,SSW,207,10.0,10.0,67,0.00,,,0.00,,2013-05-15 15:37:00,
2013-05-15 11:48:00,57.0,46.0,30.08,SSW,207,10.0,10.0,67,0.00,,,0.00,,2013-05-15 15:48:00,
2013-05-15 11:57:00,57.0,46.0,30.09,SW,232,7.0,9.0,66,0.00,,,0.00,,2013-05-15 15:57:00,
2013-05-15 12:10:00,57.0,45.0,30.09,SSE,168,3.0,9.0,64,0.00,,,0.00,,2013-05-15 16:10:00,
2013-05-15 12:14:00,57.0,46.0,30.06,South,185,5.0,13.0,66,0.00,,,0.00,,2013-05-15 16:14:00,
2013-05-15 12:24:00,56.0,44.0,30.07,SW,222,9.0,9.0,64,0.00,,,0.00,,2013-05-15 16:24:00,
2013-05-15 12:51:00,57.0,46.0,30.06,South,185,5.0,13.0,66,0.00,,,0.00,,2013-05-15 16:51:00,
2013-05-15 13:00:00,57.0,46.0,30.06,South,185,5.0,13.0,66,0.00,,,0.00,,2013-05-15 17:00:00,
2013-05-15 13:10:00,57.0,46.0,30.06,South,185,5.0,13.0,66,0.00,,,0.00,,2013-05-15 17:10:00,
2013-05-15 13:47:00,59.0,44.0,30.06,SSW,205,4.0,13.0,58,0.00,,,0.00,,2013-05-15 17:47:00,
2013-05-15 13:56:00,56.0,47.0,30.04,South,169,3.0,7.0,71,0.00,,,0.00,,2013-05-15 17:56:00,
2013-05-15 14:07:00,57.0,47.0,30.03,SW,222,4.0,7.0,69,0.00,,,0.00,,2013-05-15 18:07:00,
2013-05-15 14:16:00,56.0,47.0,30.01,SSW,199,5.0,7.0,71,0.00,,,0.00,,2013-05-15 18:16:00,
2013-05-15 14:27:00,56.0,47.0,30.01,SSW,199,5.0,7.0,71,0.00,,,0.00,,2013-05-15 18:27:00,
2013-05-15 14:37:00,56.0,47.0,29.98,SSE,168,4.0,6.0,72,0.00,,,0.00,,2013-05-15 18:37:00,
2013-05-15 14:46:00,56.0,47.0,29.98,SSE,168,4.0,6.0,72,0.00,,,0.00,,2013-05-15 18:46:00,
2013-05-15 15:09:00,55.0,47.0,29.99,SSW,202,3.0,6.0,75,0.00,,,0.00,,2013-05-15 19:09:00,
2013-05-15 15:15:00,55.0,47.0,29.99,SSW,202,3.0,6.0,75,0.00,,,0.00,,2013-05-15 19:15:00,
2013-05-15 15:30:00,54.0,47.0,29.95,South,176,4.0,6.0,78,0.00,,,0.00,,2013-05-15 19:30:00,
2013-05-15 15:38:00,55.0,49.0,29.96,SSE,164,4.0,6.0,81,0.00,,,0.00,,2013-05-15 19:38:00,
2013-05-15 15:47:00,55.0,49.0,29.96,SSE,164,4.0,6.0,81,0.00,,,0.00,,2013-05-15 19:47:00,
2013-05-15 16:18:00,55.0,50.0,29.97,SE,145,0.0,6.0,83,0.00,,,0.00,,2013-05-15 20:18:00,
2013-05-15 16:29:00,54.0,50.0,29.96,SSE,157,0.0,6.0,87,0.00,,,0.00,,2013-05-15 20:29:00,
2013-05-15 16:40:00,54.0,50.0,29.96,SSE,157,0.0,6.0,87,0.00,,,0.00,,2013-05-15 20:40:00,
2013-05-15 16:47:00,54.0,50.0,29.96,SSE,157,0.0,6.0,87,0.00,,,0.00,,2013-05-15 20:47:00,
2013-05-15 17:09:00,53.0,50.0,29.89,ESE,116,8.0,8.0,88,0.00,,,0.00,,2013-05-15 21:09:00,
2013-05-15 17:20:00,53.0,50.0,29.89,ESE,116,8.0,8.0,88,0.00,,,0.00,,2013-05-15 21:20:00,
2013-05-15 17:28:00,53.0,50.0,29.89,ESE,116,8.0,8.0,88,0.00,,,0.00,,2013-05-15 21:28:00,
2013-05-15 17:41:00,54.0,51.0,29.88,SSE,154,4.0,9.0,89,0.01,,,0.01,,2013-05-15 21:41:00,
2013-05-15 17:50:00,54.0,51.0,29.88,SSE,154,4.0,9.0,89,0.01,,,0.01,,2013-05-15 21:50:00,
2013-05-15 18:01:00,54.0,51.0,29.86,SSE,151,11.0,11.0,88,0.01,,,0.01,,2013-05-15 22:01:00,
2013-05-15 18:11:00,54.0,51.0,29.85,South,177,5.0,9.0,88,0.01,,,0.01,,2013-05-15 22:11:00,
2013-05-15 18:18:00,54.0,51.0,29.85,South,177,5.0,9.0,88,0.01,,,0.01,,2013-05-15 22:18:00,
2013-05-15 18:29:00,54.0,51.0,29.83,South,187,5.0,9.0,88,0.01,,,0.01,,2013-05-15 22:29:00,
2013-05-15 18:40:00,54.0,50.0,29.83,SSE,150,6.0,13.0,87,0.00,,,0.01,,2013-05-15 22:40:00,
2013-05-15 18:50:00,54.0,50.0,29.83,SSE,150,6.0,13.0,87,0.00,,,0.01,,2013-05-15 22:50:00,
2013-05-15 19:28:00,54.0,51.0,29.83,South,179,5.0,13.0,88,0.00,,,0.01,,2013-05-15 23:28:00,
2013-05-15 19:38:00,54.0,51.0,29.82,SSE,157,3.0,6.0,89,0.00,,,0.01,,2013-05-15 23:38:00,
2013-05-15 19:50:00,54.0,51.0,29.82,SSE,157,3.0,6.0,89,0.00,,,0.01,,2013-05-15 23:50:00,
2013-05-15 19:55:00,54.0,51.0,29.82,South,181,0.0,6.0,90,0.00,,,0.01,,2013-05-15 23:55:00,
2013-05-15 20:08:00,54.0,51.0,29.81,SSW,200,0.0,6.0,91,0.00,,,0.01,,2013-05-16 00:08:00,
2013-05-15 20:17:00,54.0,51.0,29.81,SSW,200,0.0,6.0,91,0.00,,,0.01,,2013-05-16 00:17:00,
2013-05-15 20:27:00,54.0,51.0,29.81,South,185,0.0,6.0,91,0.00,,,0.01,,2013-05-16 00:27:00,
2013-05-15 20:36:00,54.0,52.0,29.80,SSW,202,5.0,0.0,92,0.00,,,0.01,,2013-05-16 00:36:00,
2013-05-15 20:49:00,53.0,51.0,29.79,South,185,5.0,0.0,92,0.00,,,0.01,,2013-05-16 00:49:00,
2013-05-15 20:58:00,53.0,51.0,29.79,South,185,5.0,0.0,92,0.00,,,0.01,,2013-05-16 00:58:00,
2013-05-15 21:07:00,53.0,51.0,29.80,South,172,0.0,0.0,93,0.00,,,0.01,,2013-05-16 01:07:00,
2013-05-15 21:17:00,53.0,51.0,29.79,South,183,0.0,0.0,93,0.00,,,0.01,,2013-05-16 01:17:00,
2013-05-15 21:48:00,53.0,51.0,29.79,South,183,0.0,0.0,93,0.00,,,0.01,,2013-05-16 01:48:00,
2013-05-15 21:56:00,53.0,51.0,29.80,South,189,6.0,0.0,94,0.00,,,0.01,,2013-05-16 01:56:00,
2013-05-15 22:08:00,53.0,52.0,29.79,SW,226,0.0,0.0,95,0.00,,,0.01,,2013-05-16 02:08:00,
2013-05-15 22:18:00,53.0,52.0,29.79,SW,226,0.0,0.0,95,0.00,,,0.01,,2013-05-16 02:18:00,
2013-05-15 22:28:00,53.0,52.0,29.79,SW,226,0.0,0.0,95,0.00,,,0.01,,2013-05-16 02:28:00,
2013-05-15 22:46:00,53.0,51.0,29.79,SW,224,0.0,9.0,94,0.00,,,0.01,,2013-05-16 02:46:00,
2013-05-15 22:56:00,53.0,51.0,29.79,SW,224,0.0,9.0,94,0.00,,,0.01,,2013-05-16 02:56:00,
2013-05-15 23:07:00,53.0,51.0,29.78,SW,222,3.0,9.0,94,0.00,,,0.01,,2013-05-16 03:07:00,
2013-05-15 23:16:00,53.0,51.0,29.78,SW,222,3.0,9.0,94,0.00,,,0.01,,2013-05-16 03:16:00,
2013-05-15 23:26:00,53.0,51.0,29.77,SW,232,0.0,0.0,94,0.00,,,0.01,,2013-05-16 03:26:00,
2013-05-15 23:38:00,53.0,51.0,29.76,SW,232,0.0,0.0,94,0.00,,,0.01,,2013-05-16 03:38:00,
2013-05-15 23:47:00,53.0,51.0,29.76,SW,232,0.0,0.0,94,0.00,,,0.01,,2013-05-16 03:47:00,
2013-05-15 23:57:00,52.0,51.0,29.77,SW,232,4.0,0.0,95,0.00,,,0.01,,2013-05-16 03:57:00,